�N����,����,�~����,�C��,���x,�C��,����,���ϕ���,�ő�u�ԕ���,�ő厞����,���˗�,�I�_���x,�n�����x,�ő啗���N��,DTYPE
"20/10/28","00:10",0.0,10.8,83.7,1015.2,320.6,1.6,2.5,312.2,0.00,8.2,15.2,"00:03:36",1
"20/10/28","00:20",0.0,10.9,84.6,1015.4,329.6,1.8,3.4,335.7,0.00,8.5,15.4,"00:19:12",1
"20/10/28","00:30",0.0,10.8,85.1,1015.4,318.0,1.6,3.5,341.3,0.00,8.4,15.3,"00:22:24",1
"20/10/28","00:40",0.0,10.5,85.6,1015.2,306.7,1.3,2.2,324.0,0.00,8.2,15.2,"00:34:40",1
"20/10/28","00:50",0.0,10.2,86.2,1015.6,295.5,1.3,1.9,319.3,0.00,8.0,15.2,"00:40:08",1
"20/10/28","01:00",0.0,10.2,86.6,1015.6,294.8,1.2,2.0,331.2,0.00,8.1,15.3,"00:58:00",1
"20/10/28","01:10",0.0,9.9,87.0,1015.4,303.5,1.0,1.8,317.1,0.00,7.9,15.2,"01:06:56",1
"20/10/28","01:20",0.0,9.9,87.6,1015.6,323.0,1.3,2.0,325.7,0.00,8.0,15.0,"01:16:08",1
"20/10/28","01:30",0.0,10.2,88.0,1015.9,322.9,1.8,2.8,336.8,0.00,8.3,15.0,"01:20:24",1
"20/10/28","01:40",0.0,10.5,88.4,1015.6,319.9,2.1,3.9,336.3,0.00,8.7,14.9,"01:39:04",1
"20/10/28","01:50",0.0,10.8,88.4,1016.1,321.1,2.5,4.8,331.8,0.00,9.0,15.2,"01:47:06",1
"20/10/28","02:00",0.0,10.5,88.2,1016.1,327.6,1.8,3.9,343.6,0.00,8.7,14.8,"01:51:04",1
"20/10/28","02:10",0.0,10.0,88.3,1015.9,308.7,1.6,3.2,339.2,0.00,8.2,14.8,"02:00:40",1
"20/10/28","02:20",0.0,9.5,88.4,1015.6,291.4,0.7,1.2,313.4,0.00,7.7,14.7,"02:11:04",1
"20/10/28","02:30",0.0,9.2,88.7,1015.9,310.0,1.2,2.2,323.7,0.00,7.5,14.7,"02:25:52",1
"20/10/28","02:40",0.0,9.2,89.0,1015.9,315.8,1.5,2.5,329.2,0.00,7.5,14.7,"02:36:08",1
"20/10/28","02:50",0.0,9.3,89.2,1015.9,315.9,1.6,2.4,322.4,0.00,7.7,14.6,"02:40:40",1
"20/10/28","03:00",0.0,9.4,89.5,1016.1,300.4,1.7,2.5,314.5,0.00,7.8,14.6,"02:58:40",1
"20/10/28","03:10",0.0,9.6,89.8,1015.9,319.0,1.8,2.8,319.4,0.00,8.0,14.7,"03:00:32",1
"20/10/28","03:20",0.0,9.6,90.1,1015.6,328.6,2.0,2.7,329.8,0.00,8.1,14.6,"03:18:08",1
"20/10/28","03:30",0.0,9.6,90.3,1015.4,327.6,1.8,2.7,336.3,0.00,8.1,14.6,"03:24:48",1
"20/10/28","03:40",0.0,9.9,90.6,1015.6,319.1,2.2,4.9,319.1,0.00,8.5,14.7,"03:38:32",1
"20/10/28","03:50",0.0,9.8,90.5,1015.6,314.9,1.8,3.1,330.6,0.00,8.4,14.5,"03:42:08",1
"20/10/28","04:00",0.0,9.6,90.7,1015.6,317.0,1.6,3.3,335.6,0.00,8.2,14.5,"03:58:32",1
"20/10/28","04:10",0.0,9.4,90.7,1016.1,327.2,1.6,2.6,334.1,0.00,8.0,14.2,"04:07:04",1
"20/10/28","04:20",0.0,9.3,90.9,1016.1,320.8,1.8,2.7,319.8,0.00,7.9,14.4,"04:14:00",1
"20/10/28","04:30",0.0,9.2,90.9,1016.1,299.7,1.6,2.7,317.4,0.00,7.8,14.5,"04:21:28",1
"20/10/28","04:40",0.0,9.0,91.1,1016.4,286.6,1.3,2.4,317.5,0.00,7.7,14.5,"04:38:40",1
"20/10/28","04:50",0.0,9.0,91.3,1016.4,302.4,1.6,2.7,333.8,0.00,7.7,14.2,"04:48:24",1
"20/10/28","05:00",0.0,9.1,91.4,1016.8,309.6,1.7,2.8,326.5,0.00,7.8,14.1,"04:53:44",1
"20/10/28","05:10",0.0,9.2,91.5,1016.8,319.5,1.7,3.3,336.8,0.00,7.9,14.2,"05:05:20",1
"20/10/28","05:20",0.0,9.1,91.6,1016.4,297.4,1.5,2.1,330.8,0.00,7.8,14.2,"05:13:36",1
"20/10/28","05:30",0.0,8.9,91.8,1016.6,297.8,1.8,2.7,317.7,0.00,7.7,14.1,"05:22:48",1
"20/10/28","05:40",0.0,8.7,91.8,1016.6,288.0,1.3,1.8,294.9,0.00,7.5,14.1,"05:38:32",1
"20/10/28","05:50",0.0,8.6,92.1,1016.6,277.3,1.3,2.0,270.4,0.00,7.4,14.1,"05:48:56",1
"20/10/28","06:00",0.0,8.6,92.3,1017.1,281.7,1.6,2.2,305.2,0.00,7.5,13.9,"05:59:12",1
"20/10/28","06:10",0.0,8.6,92.3,1016.6,288.4,1.3,2.9,299.0,0.00,7.5,14.1,"06:04:48",1
"20/10/28","06:20",0.0,8.7,92.5,1016.8,324.3,1.6,2.8,326.6,0.00,7.6,13.9,"06:10:08",1
"20/10/28","06:30",0.0,8.6,92.6,1016.8,287.2,1.0,1.6,326.3,0.00,7.5,14.1,"06:20:08",1
"20/10/28","06:40",0.0,8.6,92.8,1016.8,303.9,1.2,1.8,320.1,0.00,7.5,14.0,"06:34:40",1
"20/10/28","06:50",0.0,8.9,92.9,1016.8,322.9,1.7,2.2,322.9,0.00,7.9,14.1,"06:44:00",1
"20/10/28","07:00",0.0,9.1,92.9,1016.6,304.0,1.5,2.0,312.3,0.01,8.1,14.2,"06:50:32",1
"20/10/28","07:10",0.0,9.5,93.1,1016.8,270.6,1.2,1.6,268.8,0.03,8.5,14.2,"07:05:04",1
"20/10/28","07:20",0.0,10.2,93.0,1017.1,270.2,1.2,1.8,255.8,0.04,9.2,14.2,"07:13:28",1
"20/10/28","07:30",0.0,10.7,92.8,1017.3,305.1,1.2,2.0,332.2,0.07,9.6,14.3,"07:25:20",1
"20/10/28","07:40",0.0,11.2,92.5,1017.5,317.2,1.2,1.8,320.0,0.06,10.1,14.5,"07:30:16",1
"20/10/28","07:50",0.0,11.3,92.1,1017.8,320.6,0.8,1.6,326.3,0.03,10.1,14.4,"07:40:24",1
"20/10/28","08:00",0.0,11.6,91.8,1017.8,288.9,0.8,1.3,316.8,0.04,10.4,14.5,"07:54:24",1
"20/10/28","08:10",0.0,11.7,91.6,1017.8,263.0,0.8,1.8,247.0,0.05,10.4,14.5,"08:03:04",1
"20/10/28","08:20",0.0,12.2,91.5,1018.0,278.7,0.7,1.6,242.2,0.11,10.9,14.6,"08:12:40",1
"20/10/28","08:30",0.0,12.9,90.3,1018.0,290.4,0.6,1.0,297.3,0.14,11.4,14.8,"08:25:44",1
"20/10/28","08:40",0.0,13.7,89.5,1017.8,277.6,0.2,0.8,278.1,0.20,12.0,15.0,"08:30:56",1
"20/10/28","08:50",0.0,14.1,86.9,1017.8,338.7,0.5,1.9,343.9,0.24,12.0,15.0,"08:44:08",1
"20/10/28","09:00",0.0,14.5,84.4,1018.0,281.3,0.6,1.3,300.2,0.19,11.9,15.3,"08:51:36",1
"20/10/28","09:10",0.0,14.8,80.2,1017.5,268.4,0.6,1.2,242.8,0.27,11.5,15.3,"09:04:40",1
"20/10/28","09:20",0.0,15.3,74.7,1017.8,251.0,0.6,1.9,242.3,0.19,10.9,15.5,"09:13:36",1
"20/10/28","09:30",0.0,16.1,71.6,1017.8,253.2,0.6,1.2,230.8,0.28,11.0,15.6,"09:24:32",1
"20/10/28","09:40",0.0,17.0,67.8,1017.1,80.6,0.5,1.2,101.4,0.33,11.1,15.7,"09:35:12",1
"20/10/28","09:50",0.0,16.9,65.2,1017.3,235.6,0.5,1.2,226.4,0.20,10.4,15.8,"09:40:48",1
"20/10/28","10:00",0.0,17.1,65.2,1016.8,261.8,0.5,1.4,114.3,0.22,10.6,16.0,"09:59:20",1
"20/10/28","10:10",0.0,16.9,64.4,1016.6,154.7,0.5,1.2,90.0,0.21,10.2,16.2,"10:00:56",1
"20/10/28","10:20",0.0,17.0,63.6,1016.6,264.9,0.6,1.2,271.9,0.20,10.1,16.2,"10:17:44",1
"20/10/28","10:30",0.0,17.5,62.0,1016.8,341.9,0.6,1.3,344.5,0.23,10.2,16.2,"10:23:36",1
"20/10/28","10:40",0.0,18.0,59.8,1016.6,303.6,0.7,1.6,230.8,0.34,10.1,16.6,"10:38:32",1
"20/10/28","10:50",0.0,18.0,60.0,1016.4,274.9,0.6,1.8,237.2,0.24,10.2,16.8,"10:40:08",1
"20/10/28","11:00",0.0,18.4,58.3,1016.1,326.7,0.7,1.8,351.0,0.31,10.1,16.7,"10:57:52",1
"20/10/28","11:10",0.0,18.9,58.1,1015.9,352.0,0.7,2.4,342.1,0.32,10.5,16.8,"11:05:04",1
"20/10/28","11:20",0.0,19.0,55.7,1015.6,235.8,0.5,2.1,224.8,0.26,10.0,16.9,"11:19:44",1
"20/10/28","11:30",0.0,18.6,55.5,1015.4,245.8,0.8,1.8,231.2,0.23,9.6,17.1,"11:22:40",1
"20/10/28","11:40",0.0,19.5,53.9,1015.4,244.5,0.5,1.8,350.1,0.36,10.0,17.2,"11:37:44",1
"20/10/28","11:50",0.0,19.9,52.0,1015.2,310.3,1.0,2.7,336.3,0.36,9.8,17.3,"11:44:24",1
"20/10/28","12:00",0.0,19.5,51.6,1014.7,78.5,0.7,2.0,359.2,0.24,9.3,17.7,"11:57:52",1
"20/10/28","12:10",0.0,19.2,51.9,1014.9,343.4,1.1,1.9,359.2,0.18,9.1,17.6,"12:03:52",1
"20/10/28","12:20",0.0,19.4,52.3,1014.2,26.3,0.7,2.0,341.1,0.24,9.4,17.7,"12:16:40",1
"20/10/28","12:30",0.0,19.3,51.2,1014.0,11.3,0.8,1.8,114.9,0.19,9.0,17.7,"12:20:56",1
"20/10/28","12:40",0.0,19.4,53.5,1014.5,289.0,0.8,2.0,337.2,0.17,9.8,17.8,"12:32:00",1
"20/10/28","12:50",0.0,19.9,51.7,1013.8,280.5,0.6,1.4,252.8,0.24,9.7,17.9,"12:48:40",1
"20/10/28","13:00",0.0,20.1,50.3,1014.0,233.4,0.6,2.0,234.7,0.25,9.5,17.9,"12:51:20",1
"20/10/28","13:10",0.0,20.2,50.2,1014.0,30.1,0.3,1.3,115.6,0.15,9.6,18.1,"13:00:56",1
"20/10/28","13:20",0.0,20.0,51.5,1013.8,312.2,0.5,1.7,338.0,0.11,9.8,18.0,"13:18:32",1
"20/10/28","13:30",0.0,20.0,51.3,1013.8,283.9,0.6,1.4,240.7,0.13,9.7,18.1,"13:27:36",1
"20/10/28","13:40",0.0,19.7,50.8,1013.5,63.5,0.5,1.2,331.0,0.16,9.3,18.1,"13:30:02",1
"20/10/28","13:50",0.0,19.8,51.6,1013.5,347.3,0.7,2.2,342.8,0.14,9.6,18.1,"13:41:36",1
"20/10/28","14:00",0.0,20.0,49.4,1013.5,336.3,1.0,2.4,339.1,0.19,9.1,18.2,"13:55:44",1
"20/10/28","14:10",0.0,20.3,50.4,1013.3,340.4,1.2,2.5,341.2,0.21,9.7,18.2,"14:08:32",1
"20/10/28","14:20",0.0,20.0,50.2,1013.3,256.4,0.8,1.6,235.8,0.13,9.4,18.0,"14:17:04",1
"20/10/28","14:30",0.0,19.8,52.6,1013.8,264.4,0.8,2.1,332.8,0.11,9.9,18.0,"14:29:04",1
"20/10/28","14:40",0.0,19.5,56.4,1013.8,341.4,1.3,2.5,352.2,0.11,10.6,18.2,"14:34:24",1
"20/10/28","14:50",0.0,19.3,58.2,1013.8,342.0,1.2,2.2,343.2,0.10,10.9,18.2,"14:46:56",1
"20/10/28","15:00",0.0,19.1,59.0,1013.8,334.5,1.3,2.7,340.6,0.09,10.9,18.1,"14:52:08",1
"20/10/28","15:10",0.0,18.9,59.9,1013.8,331.1,1.3,2.2,343.3,0.06,11.0,18.1,"15:04:56",1
"20/10/28","15:20",0.0,18.8,61.2,1014.0,333.1,1.3,2.1,326.5,0.06,11.2,18.1,"15:18:48",1
"20/10/28","15:30",0.0,18.7,62.3,1013.8,331.1,1.0,1.9,337.5,0.06,11.4,18.0,"15:21:04",1
"20/10/28","15:40",0.0,18.8,62.7,1014.0,325.0,1.0,1.8,344.2,0.06,11.6,18.1,"15:31:20",1
"20/10/28","15:50",0.0,18.9,62.7,1014.2,295.2,0.7,1.2,302.0,0.05,11.7,18.0,"15:47:36",1
"20/10/28","16:00",0.0,18.7,63.6,1014.2,313.9,0.8,1.9,347.9,0.03,11.7,17.9,"15:58:40",1
"20/10/28","16:10",0.0,18.5,65.5,1014.0,324.3,1.0,1.8,311.1,0.02,12.0,18.0,"16:02:48",1
"20/10/28","16:20",0.0,18.1,67.4,1014.0,310.6,0.7,1.3,333.4,0.01,12.0,17.9,"16:10:40",1
"20/10/28","16:30",0.0,17.7,68.4,1014.0,270.8,0.6,1.2,269.2,0.01,11.9,18.2,"16:24:48",1
"20/10/28","16:40",0.0,17.5,69.3,1014.2,296.5,0.7,1.7,320.7,0.00,11.9,18.0,"16:33:04",1
"20/10/28","16:50",0.0,17.3,70.2,1014.0,284.9,0.7,1.3,314.7,0.00,11.9,17.7,"16:49:20",1
"20/10/28","17:00",0.0,17.1,71.3,1014.5,297.5,1.0,1.8,335.3,0.00,11.9,17.8,"16:58:48",1
"20/10/28","17:10",0.0,16.8,72.6,1014.0,311.7,1.0,1.7,303.6,0.00,11.9,17.8,"17:01:04",1
"20/10/28","17:20",0.0,16.4,73.9,1014.2,300.2,0.8,1.4,331.5,0.00,11.8,17.7,"17:17:12",1
"20/10/28","17:30",0.0,16.1,75.2,1014.2,283.3,0.7,1.0,270.8,0.00,11.8,17.7,"17:22:24",1
"20/10/28","17:40",0.0,16.0,76.6,1014.2,299.8,0.8,1.4,315.6,0.00,11.9,17.7,"17:38:00",1
"20/10/28","17:50",0.0,15.8,78.0,1014.0,310.3,1.2,2.6,324.6,0.00,12.0,17.5,"17:41:20",1
"20/10/28","18:00",0.0,15.7,78.8,1014.2,289.5,1.0,1.7,318.3,0.00,12.1,17.4,"17:50:02",1
"20/10/28","18:10",0.0,15.4,79.5,1014.2,307.5,1.1,1.7,309.8,0.00,11.9,17.4,"18:09:44",1
"20/10/28","18:20",0.0,15.2,80.3,1014.2,312.9,1.3,2.1,323.5,0.00,11.9,17.1,"18:13:52",1
"20/10/28","18:30",0.0,15.0,80.9,1014.5,302.7,0.7,1.3,318.6,0.00,11.8,17.3,"18:28:32",1
"20/10/28","18:40",0.0,14.7,81.4,1014.5,305.1,0.8,1.3,321.5,0.00,11.6,17.2,"18:30:08",1
"20/10/28","18:50",0.0,14.4,81.8,1014.2,289.6,0.5,0.9,277.6,0.00,11.4,16.9,"18:48:32",1
"20/10/28","19:00",0.0,14.1,82.4,1014.5,311.9,1.0,1.4,323.4,0.00,11.2,17.1,"18:54:08",1
"20/10/28","19:10",0.0,14.1,83.5,1014.5,317.3,1.2,1.7,324.2,0.00,11.4,17.0,"19:04:24",1
"20/10/28","19:20",0.0,14.1,84.1,1014.5,315.7,1.1,1.6,328.3,0.00,11.5,17.0,"19:10:32",1
"20/10/28","19:30",0.0,14.0,84.6,1014.7,284.1,0.8,1.2,315.9,0.00,11.5,17.1,"19:21:04",1
"20/10/28","19:40",0.0,14.1,85.1,1014.7,279.1,0.8,1.2,274.1,0.00,11.7,16.9,"19:38:08",1
"20/10/28","19:50",0.0,14.2,85.5,1014.7,298.9,1.2,2.2,308.1,0.00,11.8,16.8,"19:47:36",1
"20/10/28","20:00",0.0,14.2,85.8,1015.2,315.6,1.2,1.9,333.8,0.00,11.9,16.9,"19:51:44",1
"20/10/28","20:10",0.0,14.1,85.9,1014.9,310.6,1.0,1.4,305.0,0.00,11.8,16.8,"20:01:20",1
"20/10/28","20:20",0.0,14.0,86.1,1015.2,286.0,0.8,1.0,272.0,0.00,11.8,16.8,"20:17:20",1
"20/10/28","20:30",0.0,13.8,86.3,1014.9,290.4,0.7,1.1,269.5,0.00,11.6,16.8,"20:20:32",1
"20/10/28","20:40",0.0,13.6,86.5,1015.2,322.0,1.0,1.2,324.4,0.00,11.4,16.6,"20:33:28",1
"20/10/28","20:50",0.0,13.3,86.7,1014.9,293.5,0.5,1.2,321.3,0.00,11.2,16.7,"20:41:12",1
"20/10/28","21:00",0.0,13.4,87.2,1015.2,288.0,1.2,1.9,314.6,0.00,11.4,16.6,"20:57:34",1
"20/10/28","21:10",0.0,13.3,87.6,1015.2,315.5,1.6,2.5,324.3,0.00,11.3,16.5,"21:01:52",1
"20/10/28","21:20",0.0,13.1,87.9,1015.2,312.5,0.6,1.3,310.6,0.00,11.2,16.4,"21:19:24",1
"20/10/28","21:30",0.0,12.8,88.2,1015.4,275.1,0.5,0.9,298.4,0.00,10.9,16.5,"21:20:08",1
"20/10/28","21:40",0.0,12.6,88.6,1015.4,315.6,1.2,1.8,324.0,0.00,10.8,16.2,"21:35:42",1
"20/10/28","21:50",0.0,12.9,89.0,1015.6,328.2,1.0,1.7,338.4,0.00,11.2,16.4,"21:44:22",1
"20/10/28","22:00",0.0,12.8,89.2,1015.6,292.1,1.0,1.3,319.8,0.00,11.1,16.4,"21:58:08",1
"20/10/28","22:10",0.0,12.6,89.4,1015.4,298.0,0.8,1.2,312.8,0.00,10.9,16.3,"22:07:58",1
"20/10/28","22:20",0.0,12.6,89.8,1015.6,303.9,1.0,1.3,327.4,0.00,11.0,16.2,"22:16:20",1
"20/10/28","22:30",0.0,12.7,90.0,1015.2,311.0,1.2,1.7,318.0,0.00,11.1,16.2,"22:28:50",1
"20/10/28","22:40",0.0,12.7,90.1,1015.2,310.8,0.6,1.2,319.8,0.00,11.2,16.2,"22:37:32",1
"20/10/28","22:50",0.0,12.5,90.4,1014.9,304.3,0.7,1.1,313.9,0.00,11.0,16.1,"22:44:30",1
"20/10/28","23:00",0.0,12.6,90.6,1015.4,319.1,1.0,1.7,323.7,0.00,11.1,16.1,"22:58:56",1
"20/10/28","23:10",0.0,12.7,90.8,1015.2,323.2,1.3,2.0,337.6,0.00,11.3,16.1,"23:04:42",1
"20/10/28","23:20",0.0,12.6,90.9,1015.2,294.2,0.8,1.6,319.5,0.00,11.2,16.1,"23:10:24",1
"20/10/28","23:30",0.0,12.4,91.1,1015.2,304.0,1.1,1.7,320.8,0.00,11.0,16.1,"23:26:30",1
"20/10/28","23:40",0.0,12.2,91.2,1014.9,302.7,1.0,2.0,313.8,0.00,10.8,16.0,"23:30:28",1
"20/10/28","23:50",0.0,12.0,91.5,1015.2,318.2,1.3,1.9,321.2,0.00,10.7,16.1,"23:47:54",1
"20/10/28","24:00",0.0,11.8,91.8,1015.2,308.3,1.3,1.7,315.2,0.00,10.6,15.8,"23:50:16",1
